TimeMDT,TemperatureF,Dew PointF,Humidity,Sea Level PressureIn,VisibilityMPH,Wind Direction,Wind SpeedMPH,Gust SpeedMPH,PrecipitationIn,Events,Conditions,WindDirDegrees,DateUTC
12:53 AM,39.9,32.0,73,30.22,10.0,SE,6.9,-,N/A,,Clear,130,2013-09-29 06:53:00
1:53 AM,39.0,32.0,76,30.22,10.0,South,4.6,-,N/A,,Clear,170,2013-09-29 07:53:00
2:53 AM,39.0,30.9,73,30.21,10.0,ESE,5.8,-,N/A,,Clear,110,2013-09-29 08:53:00
3:53 AM,37.9,32.0,79,30.20,10.0,South,4.6,-,N/A,,Clear,180,2013-09-29 09:53:00
4:53 AM,37.0,30.9,79,30.20,10.0,SSE,6.9,-,N/A,,Clear,150,2013-09-29 10:53:00
5:53 AM,35.1,30.0,82,30.21,10.0,SSE,4.6,-,N/A,,Clear,160,2013-09-29 11:53:00
6:53 AM,34.0,30.0,85,30.24,10.0,SE,3.5,-,N/A,,Clear,130,2013-09-29 12:53:00
7:53 AM,37.0,30.0,76,30.26,10.0,SSE,5.8,-,N/A,,Clear,150,2013-09-29 13:53:00
8:53 AM,44.1,30.0,58,30.25,10.0,Calm,Calm,-,N/A,,Clear,0,2013-09-29 14:53:00
9:53 AM,50.0,32.0,50,30.22,10.0,Calm,Calm,-,N/A,,Clear,0,2013-09-29 15:53:00
10:53 AM,54.0,30.9,41,30.20,10.0,NW,6.9,-,N/A,,Clear,310,2013-09-29 16:53:00
11:53 AM,59.0,32.0,36,30.14,10.0,Calm,Calm,-,N/A,,Clear,0,2013-09-29 17:53:00
12:53 PM,63.0,28.9,28,30.10,10.0,Variable,3.5,-,N/A,,Clear,0,2013-09-29 18:53:00
1:53 PM,68.0,30.0,24,30.05,10.0,NNW,5.8,-,N/A,,Clear,330,2013-09-29 19:53:00
2:53 PM,70.0,24.1,18,30.01,10.0,NW,3.5,-,N/A,,Clear,310,2013-09-29 20:53:00
3:53 PM,70.0,26.1,19,30.01,10.0,North,9.2,-,N/A,,Clear,350,2013-09-29 21:53:00
4:53 PM,70.0,25.0,18,30.01,10.0,Variable,4.6,-,N/A,,Clear,0,2013-09-29 22:53:00
5:53 PM,70.0,25.0,18,30.01,10.0,Calm,Calm,-,N/A,,Clear,0,2013-09-29 23:53:00
6:53 PM,64.9,33.1,31,30.03,10.0,Calm,Calm,-,N/A,,Clear,0,2013-09-30 00:53:00
7:53 PM,57.0,37.0,47,30.05,10.0,SSE,5.8,-,N/A,,Clear,160,2013-09-30 01:53:00
8:53 PM,52.0,35.1,53,30.05,10.0,SE,9.2,-,N/A,,Clear,130,2013-09-30 02:53:00
9:53 PM,50.0,33.1,52,30.04,10.0,SE,6.9,-,N/A,,Clear,140,2013-09-30 03:53:00
10:53 PM,48.9,32.0,52,30.04,10.0,SE,8.1,-,N/A,,Clear,130,2013-09-30 04:53:00
11:53 PM,46.0,33.1,61,30.04,10.0,SE,5.8,-,N/A,,Clear,140,2013-09-30 05:53:00